Location: Newark
(41.8083°N, 72.2500°W)
Time: 10:44:34
(UTC+00:00)

Altair - Pass Details

Date: 03 December 2021
Orbit: 1501 x 1683 km, 47.2° (Epoch: 20 January)

Event Time Altitude Azimuth Distance (km) Brightness Sun altitude
Rises 23:43:55 0° 281° (W) 4,712 11.2 -26.4°
Reaches altitude 10° 23:47:04 10° 284° (WNW) 3,709 10.4 -27.0°
Maximum altitude 23:56:19 64° 6° (N) 1,648 7.5 -28.7°
Enters shadow 23:58:22 53° 55° (NE) 1,804 7.4 -29.1°
